Nantucket, MA

11:54 PM EDT on May 22, 2017 (GMT -0400)
Nantucket Memorial

Weather History for KACK - July, 2012

Change the Weather History Date:

Saturday, July 7, 2012

  Actual Average Record
Temperature  
Mean Temperature 75 °F -  
Max Temperature 84 °F 75 °F 85 °F (1970)
Min Temperature 68 °F 59 °F 50 °F (1969)
Cooling Degree Days 10    
Growing Degree Days 25 (Base 50)    
Moisture  
Dew Point 69 °F    
Average Humidity 87    
Maximum Humidity 100    
Minimum Humidity 65    
Precipitation  
Precipitation 0.00 in - - ()
Sea Level Pressure  
Sea Level Pressure 29.80 in    
Wind  
Wind Speed 11 mph (WSW)    
Max Wind Speed 16 mph    
Max Gust Speed -    
Visibility 7 miles    
Events      
Averages and records for this station are not official NWS values.
T = Trace of Precipitation, MM = Missing Value Source: NWS Daily Summary

Daily Weather History Graph

Daily Weather History Graph

Search for Another Location

Airport or City:

Trip Planner

Search our weather history database for the weather conditions in past years. The results will help you decide how hot, cold, wet, or windy it might be!

Date:

Astronomy

Jul. 07, 2012 Rise Set
Actual Time 5:14 AM EDT 8:15 PM EDT
Civil Twilight 4:41 AM EDT 8:48 PM EDT
Nautical Twilight 3:59 AM EDT 9:30 PM EDT
Astronomical Twilight 3:09 AM EDT 10:20 PM EDT
Moon 10:29 PM EDT (7/7) 9:39 AM EDT (7/7)
Length of Visible Light 16h 07m
Length of Day
15h 00m
Waning Gibbous, 82% of the Moon is Illuminated
Jul 7
Waning Gibbous
Jul 10
Last Quarter
Jul 19
New
Jul 26
First Quarter
Aug 1
Full

Hourly Weather History & Observations

Time (EDT) Temp. Heat Index Dew Point Humidity Pressure Visibility Wind Dir Wind Speed Gust Speed Precip Events Conditions
12:53 AM 69.8 °F - 69.8 °F 100% 29.87 in 3.0 mi SSW 12.7 mph - N/A   Mostly Cloudy
1:00 AM 69.8 °F - 69.8 °F 100% 29.87 in 1.8 mi SSW 11.5 mph - N/A   Mostly Cloudy
1:34 AM 68.0 °F - 68.0 °F 100% 29.87 in 1.0 mi SW 10.4 mph - N/A   Mist
1:53 AM 68.0 °F - 68.0 °F 100% 29.87 in 1.8 mi SW 10.4 mph - N/A   Overcast
2:01 AM 68.0 °F - 68.0 °F 100% 29.87 in 2.5 mi SW 10.4 mph - N/A   Overcast
2:11 AM 69.8 °F - 68.0 °F 94% 29.86 in 3.0 mi SW 8.1 mph - N/A   Overcast
2:53 AM 69.1 °F - 69.1 °F 100% 29.85 in 5.0 mi SW 9.2 mph - N/A   Scattered Clouds
3:53 AM 70.0 °F - 69.1 °F 97% 29.84 in 7.0 mi WSW 12.7 mph - N/A   Clear
4:53 AM 70.0 °F - 69.1 °F 97% 29.83 in 6.0 mi WSW 10.4 mph - N/A   Clear
5:53 AM 70.0 °F - 70.0 °F 100% 29.83 in 4.0 mi SW 9.2 mph - N/A   Partly Cloudy
6:53 AM 71.6 °F - 69.8 °F 94% 29.82 in 5.0 mi SW 10.4 mph - N/A   Mostly Cloudy
7:53 AM 71.1 °F - 70.0 °F 96% 29.82 in 7.0 mi SW 9.2 mph - N/A   Clear
8:53 AM 72.0 °F - 70.0 °F 93% 29.81 in 9.0 mi SW 10.4 mph - N/A   Clear
9:53 AM 75.9 °F - 69.1 °F 79% 29.81 in 10.0 mi SW 13.8 mph - N/A   Clear
10:53 AM 78.8 °F - 71.6 °F 78% 29.79 in 10.0 mi WSW 16.1 mph - N/A   Clear
11:53 AM 73.9 °F - 70.0 °F 87% 29.79 in 7.0 mi West 16.1 mph - N/A   Clear
12:01 PM 73.4 °F - 69.8 °F 88% 29.78 in 7.0 mi WSW 11.5 mph - N/A   Scattered Clouds
12:53 PM 78.1 °F - 71.1 °F 79% 29.78 in 9.0 mi West 10.4 mph - N/A   Clear
1:53 PM 75.9 °F - 70.0 °F 82% 29.75 in 8.0 mi WSW 10.4 mph - N/A   Clear
2:53 PM 82.9 °F 87.0 °F 70.0 °F 65% 29.77 in 10.0 mi West 15.0 mph - N/A   Clear
3:53 PM 81.0 °F 84.1 °F 69.1 °F 67% 29.77 in 10.0 mi West 13.8 mph - N/A   Partly Cloudy
4:53 PM 78.1 °F - 68.0 °F 71% 29.73 in 10.0 mi West 9.2 mph - N/A   Clear
5:53 PM 75.9 °F - 68.0 °F 76% 29.71 in 9.0 mi West 9.2 mph - N/A   Partly Cloudy
6:53 PM 75.9 °F - 68.0 °F 76% 29.73 in 10.0 mi West 13.8 mph - N/A   Partly Cloudy
7:53 PM 75.0 °F - 66.9 °F 76% 29.75 in 10.0 mi West 10.4 mph - N/A   Clear
8:53 PM 73.9 °F - 66.9 °F 79% 29.75 in 10.0 mi West 6.9 mph - N/A   Overcast
9:53 PM 73.9 °F - 68.0 °F 82% 29.76 in 10.0 mi WNW 5.8 mph - N/A   Scattered Clouds
10:53 PM 71.1 °F - 68.0 °F 90% 29.77 in 10.0 mi West 5.8 mph - N/A   Scattered Clouds
11:53 PM 70.0 °F - 66.9 °F 90% 29.78 in 10.0 mi West 8.1 mph - N/A   Clear